Regional Weather Roundup
Issued by NWS

Home | Current Version | Previous Version | Graphics & Text | Print | Product List | Glossary On
Versions: 1 2 3 4 5 6 7 8 9 10 11 12 13 14 15 16 17 18 19 20 21 22 23 24 25 26 27 28 29 30 31 32 33 34 35 36 37 38 39 40 41 42 43 44 45 46 47 48 49 50
957
ASUS43 KMKX 261400
RWRWI

WISCONSIN REGIONAL WEATHER ROUNDUP
NATIONAL WEATHER SERVICE MILWAUKEE/SULLIVAN WI
800 AM CST SUN FEB 26 2017

NOTE: "FAIR" INDICATES FEW OR NO CLOUDS BELOW 12,000 FEET WITH NO
SIGNIFICANT WEATHER AND/OR OBSTRUCTIONS TO VISIBILITY.

WIZ001-002-006>008-014>016-023>028-261500-
NORTHWEST WISCONSIN

CITY           SKY/WX    TMP DP  RH WIND       PRES   REMARKS
SUPERIOR ARPT  CLOUDY    26  22  87 SW5       29.66F WCI  20
ASHLAND        CLOUDY    25  19  78 SW9       29.68R WCI  15
HAYWARD        CLOUDY    24  17  74 SW7       29.69R WCI  16
SIREN          CLOUDY    26  19  76 SW8       29.70R WCI  18
CUMBERLAND     CLOUDY    25  19  80 SW12      29.70R WCI  14
RICE LAKE      CLOUDY    25  19  79 S7        29.73R WCI  17
CHETEK         CLOUDY    24  18  77 SW9       29.72R WCI  14
LADYSMITH      CLOUDY    23  19  82 S8        29.72R WCI  14
EAU CLAIRE     NOT AVBL
MENOMONIE      PTSUNNY   24  17  75 SW6       29.74R WCI  17
NEW RICHMOND   CLOUDY    24  18  77 SW7       29.73R WCI  16
OSCEOLA        CLOUDY    27  20  76 SW7       29.76R WCI  19
$$

WIZ003>005-009-010-017-018-261500-
NORTH CENTRAL WISCONSIN

CITY           SKY/WX    TMP DP  RH WIND       PRES   REMARKS
MANITOWISH WTR FLURRIES  20  19  94 S9        29.65F WCI   9
ARBOR VITAE    LGT SNOW  22  19  87 S9          N/A  WCI  11
WOODRUFF       LGT SNOW  22  19  87 S9          N/A  WCI  11
RHINELANDER    CLOUDY    21  17  84 SW16G22   29.69R WCI   7
EAGLE RIVER    LGT SNOW  20  15  82 SW7       29.67S WCI  11
LAND O LAKES   LGT SNOW  19  17  88 SW7       29.68R WCI  10
PHILLIPS       LGT SNOW  20  18  88 SW8       29.68R WCI  11
TOMAHAWK       CLOUDY    20  17  87 CALM      29.70F
MEDFORD        CLOUDY    22  16  77 S12G17    29.70F WCI  10
MERRILL        NOT AVBL
$$

WIZ029-030-035-036-043>047-261500-
CENTRAL WISCONSIN

CITY           SKY/WX    TMP DP  RH WIND       PRES   REMARKS
WAUSAU         CLOUDY    23  17  78 S12       29.73F WCI  12
MOSINEE        CLOUDY    21  19  93 S12       29.76F WCI   9
MARSHFIELD     CLOUDY    23  16  74 S12       29.73F WCI  12
STEVENS POINT  CLOUDY    22  16  79 S8        29.78F WCI  12
WAUPACA        CLOUDY    25  18  77 S7        29.82S WCI  17
WAUTOMA        CLOUDY    24  19  81 S7        29.82F WCI  16
WISC RAPIDS    CLOUDY    24  18  77 SW7       29.79S WCI  16
CAMP DOUGLAS   NOT AVBL
$$

WIZ011>013-019>022-031-037>040-048>050-261500-
NORTHEAST WISCONSIN

CITY           SKY/WX    TMP DP  RH WIND       PRES   REMARKS
ANTIGO         CLOUDY    19  17  88 SW12      29.74S WCI   7
SHAWANO        CLOUDY    26  20  79 SW6       29.81F WCI  19
OCONTO         CLOUDY    24  18  78 S8        29.83S WCI  14
STURGEON BAY   FLURRIES  25  19  78 S15       29.83F WCI  13
GREEN BAY      CLOUDY    25  20  81 S7        29.83F WCI  17
MANITOWOC      NOT AVBL
APPLETON       CLOUDY    25  16  68 S13       29.81F WCI  13
CLINTONVILLE   CLOUDY    25  19  80 SW7       29.81S WCI  17
OSHKOSH        CLOUDY    26  18  71 S16       29.83F WCI  14
$$

WIZ032>034-041-042-053>061-261500-
SOUTHWEST WISCONSIN

CITY           SKY/WX    TMP DP  RH WIND       PRES   REMARKS
LA CROSSE      MOSUNNY   29  19  66 SE7       29.80R WCI  22
SPARTA         MOSUNNY   26  18  73 SW3       29.80R
VIROQUA        CLOUDY    27  19  72 SW13      29.78S WCI  17
BOSCOBEL       SUNNY     31  19  61 SW7       29.85R WCI  24
PRAIRIE DU CHI MOSUNNY   31  19  60 SW6       29.84S WCI  25
PLATTEVILLE    SUNNY     29  22  76 S12       29.86S WCI  19
$$

WIZ056-057-062-063-064-067-068-261500-
SOUTH CENTRAL WISCONSIN

CITY           SKY/WX    TMP DP  RH WIND       PRES   REMARKS
REEDSBURG      MOSUNNY   28  19  71 S12       29.82S WCI  17
BARABOO/DELLS  PTSUNNY   26  18  72 S13       29.81F WCI  15
LONE ROCK      NOT AVBL
MINERAL POINT  PTSUNNY   30  23  74 S5        29.84S WCI  25
MADISON        PTSUNNY   28  18  66 S9        29.86S WCI  19
MIDDLETON      PTSUNNY   29  20  70 SW7       29.86R WCI  22
WATERTOWN      CLOUDY    27  20  73 S12       29.86F WCI  17
MONROE         PTSUNNY   28  19  69 S23       29.86S WCI  14
JANESVILLE     CLOUDY    30  19  64 S16G22    29.90F WCI  19
$$

WIZ051-052-058>065-066-070>072-261500-
SOUTHEAST WISCONSIN

CITY           SKY/WX    TMP DP  RH WIND       PRES   REMARKS
MILWAUKEE      CLOUDY    29  18  63 S14       29.92F WCI  18
WAUKESHA       CLOUDY    21  18  86 S7        29.92F WCI  13
MILWAUKEE/TIMM CLOUDY    27  16  63 S12       29.92F WCI  16
RACINE         CLOUDY    28  17  63 S10       29.95F WCI  19
KENOSHA        CLOUDY    28  18  66 S10       29.94F WCI  19
FOND DU LAC    CLOUDY    28  16  60 S15       29.84F WCI  16
SHEBOYGAN      CLOUDY    25  17  72 S14       29.88F WCI  13
WEST BEND      CLOUDY    25  21  86 S5        29.88F WCI  19
JUNEAU         CLOUDY    25  19  76 S8        29.87S WCI  16
$$

LSZ147-162-261500-
LAKE SUPERIOR

STATION/POSITION TIME  TEMP    WIND        PRES    WAVE
                       AIR SEA DIR/SP/G            HT/PER
                 (UTC) (F)     (DEG/KT/KT) (MB)    (FT/S)
DEVILS ISLAND    1300   27     220/ 16/ 21 1004.9F
PORT WING        1330   25     190/  7/  8 1005.1R
SAXON HARBOR     1340   25     200/  7/ 11 1005.4R
$$

LMZ867-665-643>646-261500-
LAKE MICHIGAN

STATION/POSITION TIME  TEMP    WIND        PRES    WAVE
                       AIR SEA DIR/SP/G            HT/PER
                 (UTC) (F)     (DEG/KT/KT) (MB)    (FT/S)
NORTHPORT PIER   1320   25        CALM     1010.5S
SISTER BAY       1305   24        CALM       N/A
KEWAUNEE LAKESHO 1330   25     210/ 11/ 15 1011.0F
SHEBOYGAN LAKESH 1300   27     190/ 15/ 16 1013.4F
PORT WASHINGTON  1330   28     200/ 11/ 17 1013.9F
MILWAUKEE LAKESH 1330   28     190/ 14/ 16   N/A
KENOSHA   LAKESH 1300   27     200/ 11/ 14 1014.9
$$

TC  - TEMPERATURE IN CELSIUS
VSB - VISIBILITY IN STATUTE MILES
WCI - WIND CHILL INDEX
HX  - HEAT INDEX





USA.gov is the U.S. government's official web portal to all federal, state and local government web resources and services.